THOR ABLESTAR DEB, 38521

Orbit data source: Space-Track

THOR ABLESTAR DEB, 38521 is space debris in LEO originally from a launch on Sat, 28 Sep 1963 UTC launched from the Air Force Western Test Range (AFWTR). Debris objects in space refer to the collection of defunct objects orbiting the Earth. Examples of debris include non-operational satellites, rocket bodies, and fragments generated from explosions, collisions, or faulty payload assembly.

Loading next visibility...
Identifier
38521, 1963-038Q
Orbit
LEO
Country
Flag of USUS
Related business
Manufacturer
Unknown
Mission
Spacecraft
Bus & Motor
Unknown
Mass
Unknown
Launch date (UTC)
1963-09-28 (62 years ago)
Launch vehicle
Unknown
Launch site
Air Force Western Test Range (AFWTR)
Object type
Payload
Rocket body
Debris
Shape & HBR
Unknown
Radar Cross Section
Small (<0.1 m²)

Expand to show TLE details & history
Last TLE update: 2 days ago

TLE from 2 days ago
0 THOR ABLESTAR DEB
1 38521U 63038Q   25257.48543943  .00000063  00000-0  89307-4 0  9990
2 38521  89.9804 333.9058 0042364  58.0542 322.3263 13.45374281598431
Epoch: 2025-09-14T11:39Z
TLE epoch observation values (Epoch: 2025-09-14T11:39:01.966Z)
Latitude
20.08415°
Longitude
165.45097°
Altitude
1,066.885 km
Speed
7.332 km/s
True Right ascension
22h 15m 39s
True Declination
19° 58' 41"
Sunlit
Object was in full shadow at epoch
Visualization orbit readout
Latitude
Unknown
Longitude
Unknown
Altitude
Unknown
Speed
Unknown
Apparent Right ascension
Unknown
Apparent Declination
Unknown
Sunlit
N/A
Visualization observer readout
Local Sidereal Time
23:44:32
Azimuth
Unknown
Elevation
Unknown
Doppler factor
Unknown
Orbital elements
Apogee altitude
1,118.005 km
Perigee altitude
1,054.76 km
Semi-major axis
7,464.52 km
Eccentricity
0.00424
Inclination
89.9804°
RAAN
333.9058°
Arg. of periapsis
58.0542°
True anomaly
322.02836°
Mean anomaly
322.3263°
Eccentric anomaly
322.17745°
Mean motion
3.36543 °/min
Orbital period
106.97 mins
BSTAR
0.000089307
Loading maneuver chart data...
Computing Atmospheric mass density...

Documentation

Showing up to 5 results
|